GW5390 Weather Reports


time (UTC)temp
F
wind
direction
speed
knots
gust
knots
rain 1hr
in
rain 24hr
in
rain mn
in
humidity
%
barometer
mb
20260504215228 69 185 0.9 0.9 0.00 0.00 0.00 88 1017.1
20260504214724 69 213 1.7 2.6 0.00 0.00 0.00 89 1017.1
20260504214221 69 166 0.9 0.9 0.00 0.00 0.00 89 1017.1
20260504213718 69 203 0.9 1.7 0.00 0.00 0.00 88 1017.3
20260504213214 69 181 0.0 0.0 0.00 0.00 0.00 88 1017.2
20260504212711 69 184 0.0 0.0 0.00 0.00 0.00 88 1017.5
20260504212208 69 188 0.0 0.0 0.00 0.00 0.00 88 1017.2
20260504211705 69 175 0.0 0.0 0.00 0.00 0.00 88 1017.3
20260504211201 69 179 0.0 0.0 0.00 0.00 0.00 87 1017.3
20260504210659 69 187 1.7 1.7 0.00 0.00 0.00 87 1017.0
20260504210155 69 149 0.9 0.9 0.00 0.00 0.00 87 1017.0
20260504205653 69 175 0.0 0.0 0.00 0.00 0.00 87 1017.0
20260504205150 69 174 0.0 0.0 0.00 0.00 0.00 87 1016.9
20260504204648 69 172 0.0 0.0 0.00 0.00 0.00 86 1017.1
20260504204147 69 174 0.0 0.0 0.00 0.00 0.00 86 1017.1
20260504203646 69 180 0.0 0.0 0.00 0.00 0.00 86 1017.1
20260504203143 70 197 0.0 0.0 0.00 0.00 0.00 85 1017.0
20260504202643 70 181 0.0 0.0 0.00 0.00 0.00 85 1017.0
20260504202140 70 206 0.9 0.9 0.00 0.00 0.00 85 1016.7
20260504201637 70 170 1.7 2.6 0.00 0.00 0.00 85 1016.8
20260504201135 70 180 0.0 0.9 0.00 0.00 0.00 84 1017.0
20260504200631 70 189 0.0 0.0 0.00 0.00 0.00 84 1016.6
20260504200128 70 190 0.0 0.0 0.00 0.00 0.00 84 1016.4
20260504195624 70 218 0.9 0.9 0.00 0.00 0.00 83 1016.5
20260504195120 70 201 1.7 1.7 0.00 0.00 0.00 83 1016.5
20260504194617 70 185 0.9 0.9 0.00 0.00 0.00 82 1016.5
20260504194113 71 198 0.0 0.0 0.00 0.00 0.00 82 1016.6
20260504193609 71 200 0.9 0.9 0.00 0.00 0.00 82 1016.4
20260504193108 71 205 0.9 1.7 0.00 0.00 0.00 81 1016.5
20260504192606 71 200 0.9 0.9 0.00 0.00 0.00 81 1016.6
20260504192104 71 195 0.9 1.7 0.00 0.00 0.00 81 1016.4
20260504191602 71 197 0.0 0.0 0.00 0.00 0.00 81 1016.4
20260504191057 71 203 0.0 0.9 0.00 0.00 0.00 81 1016.5
20260504190554 71 195 0.0 0.9 0.00 0.00 0.00 81 1016.4
20260504190050 71 186 2.6 3.5 0.00 0.00 0.00 81 1016.3
20260504185547 71 197 1.7 2.6 0.00 0.00 0.00 81 1016.4
20260504185044 72 193 2.6 2.6 0.00 0.00 0.00 80 1016.5
20260504184539 72 185 1.7 1.7 0.00 0.00 0.00 79 1016.4
20260504184035 73 202 1.7 1.7 0.00 0.00 0.00 78 1016.8
20260504183532 73 191 0.0 0.9 0.00 0.00 0.00 78 1016.9
20260504183030 73 201 0.9 1.7 0.00 0.00 0.00 78 1016.9
20260504182527 73 188 0.0 0.9 0.00 0.00 0.00 78 1016.9
20260504182024 73 160 2.6 2.6 0.00 0.00 0.00 78 1017.0
20260504181521 73 173 0.0 0.0 0.00 0.00 0.00 79 1017.2
20260504181020 73 195 4.3 5.2 0.00 0.00 0.00 78 1017.0
20260504180518 73 212 2.6 2.6 0.00 0.00 0.00 79 1017.1
20260504180016 73 182 3.5 3.5 0.00 0.00 0.00 80 1017.1
20260504175513 73 188 1.7 1.7 0.00 0.00 0.00 81 1017.0
20260504175010 72 192 3.5 5.2 0.00 0.00 0.00 80 1017.0
20260504174508 72 161 5.2 7.0 0.00 0.00 0.00 80 1016.7
20260504174005 72 184 1.7 3.5 0.00 0.00 0.00 80 1017.0
20260504173501 72 186 1.7 1.7 0.00 0.00 0.00 81 1016.9
20260504172959 72 220 4.3 6.1 0.00 0.00 0.00 80 1017.0
20260504172454 72 155 3.5 5.2 0.00 0.00 0.00 80 1017.1
20260504171951 72 146 3.5 7.0 0.00 0.00 0.00 80 1017.2
20260504171448 71 189 0.9 1.7 0.00 0.00 0.00 80 1017.3
20260504170945 72 150 2.6 3.5 0.00 0.00 0.00 78 1017.4
20260504170441 72 220 1.7 1.7 0.00 0.00 0.00 78 1017.5
20260504160401 73 211 3.5 3.5 0.00 0.00 0.00 76 1018.2
20260504150825 71 181 0.0 0.0 0.00 0.00 0.00 78 1019.3
20260504150322 71 204 0.9 0.9 0.00 0.00 0.00 77 1019.1
20260504141252 74 195 3.5 3.5 0.00 0.00 0.00 72 1019.3
20260504140749 75 208 2.6 3.5 0.00 0.00 0.00 72 1019.4
20260504140244 75 288 1.7 2.6 0.00 0.00 0.00 73 1019.4
20260504130713 73 236 0.0 0.9 0.00 0.00 0.00 77 1020.0
20260504130209 71 198 0.0 0.9 0.00 0.00 0.00 79 1019.9
20260504120133 67 181 0.0 0.0 0.00 0.00 0.00 87 1019.9
20260504110600 64 182 0.0 0.0 0.00 0.00 0.00 92 1019.7
20260504100522 62 185 0.0 0.0 0.00 0.00 0.00 93 1019.2
20260504081915 62 177 0.0 0.0 0.00 0.00 0.00 92 1018.1
20260504081412 62 177 0.0 0.0 0.00 0.00 0.00 92 1018.2
20260504080908 62 177 0.0 0.0 0.00 0.00 0.00 92 1018.2
20260504080405 62 177 0.0 0.0 0.00 0.00 0.00 92 1018.1
20260504070332 62 181 0.0 0.0 0.00 0.00 0.00 92 1018.5
20260504050721 62 189 0.0 0.0 0.00 0.00 0.00 92 1019.5
20260504050218 62 189 0.0 0.0 0.00 0.00 0.00 92 1019.5
20260504045715 62 189 0.0 0.0 0.00 0.00 0.00 92 1019.6
20260504045215 62 189 0.0 0.0 0.00 0.00 0.00 92 1019.7
20260504044713 62 189 0.0 0.0 0.00 0.00 0.00 92 1019.7
20260504044210 62 189 0.0 0.0 0.00 0.00 0.00 92 1019.8
20260504043707 62 189 0.0 0.0 0.00 0.00 0.00 92 1019.7
20260504043204 62 189 0.0 0.0 0.00 0.00 0.00 92 1019.8
20260504042702 62 189 0.0 0.0 0.00 0.00 0.00 92 1019.9
20260504042158 62 189 0.0 0.0 0.00 0.00 0.00 92 1019.9
20260504041654 61 189 0.0 0.0 0.00 0.00 0.00 92 1020.1
20260504041150 61 189 0.0 0.0 0.00 0.00 0.00 92 1020.0
20260504040647 61 189 0.0 0.0 0.00 0.00 0.00 92 1020.2
20260504040144 61 189 0.0 0.0 0.00 0.00 0.00 92 1020.1
20260504035641 61 189 0.0 0.0 0.00 0.00 0.00 92 1020.1
20260504035137 61 189 0.0 0.0 0.00 0.00 0.00 92 1020.3
20260504034635 61 189 0.0 0.0 0.00 0.00 0.00 92 1020.0
20260504034132 61 189 0.0 0.0 0.00 0.00 0.00 92 1020.2
20260504033630 61 189 0.0 0.0 0.00 0.00 0.00 92 1020.2
20260504033127 61 189 0.0 0.0 0.00 0.00 0.00 92 1020.4
20260504032624 61 189 0.0 0.0 0.00 0.00 0.00 92 1020.4
20260504032120 60 189 0.0 0.0 0.00 0.00 0.00 92 1020.6
20260504031618 60 189 0.0 0.0 0.00 0.00 0.00 92 1020.6
20260504031114 61 189 0.0 0.0 0.00 0.00 0.00 92 1020.6
20260504030611 61 189 0.0 0.0 0.00 0.00 0.00 92 1020.9
20260504030108 60 189 0.0 0.0 0.00 0.00 0.00 91 1020.8
20260504025604 61 190 0.0 0.0 0.00 0.00 0.00 91 1020.7
20260504025101 61 190 0.0 0.0 0.00 0.00 0.00 91 1021.0
20260504024558 61 189 0.0 0.0 0.00 0.00 0.00 91 1021.0
20260504024055 61 189 0.0 0.0 0.00 0.00 0.00 91 1020.9
20260504023551 61 189 0.0 0.0 0.00 0.00 0.00 91 1020.8
20260504023047 61 189 0.0 0.0 0.00 0.00 0.00 91 1020.9
20260504022543 61 189 0.0 0.0 0.00 0.00 0.00 91 1021.1
20260504022040 61 189 0.0 0.0 0.00 0.00 0.00 91 1021.0
20260504021538 61 190 0.0 0.0 0.00 0.00 0.00 91 1021.0
20260504021034 61 189 0.0 0.0 0.00 0.00 0.00 91 1021.3
20260504020531 61 189 0.0 0.0 0.00 0.00 0.00 91 1021.2
20260504020028 61 189 0.0 0.0 0.00 0.00 0.00 90 1021.5
20260504015524 61 189 0.0 0.0 0.00 0.00 0.00 90 1021.3
20260504015020 61 189 0.0 0.0 0.00 0.00 0.00 90 1021.4
20260504014516 61 189 0.0 0.0 0.00 0.00 0.00 90 1021.4
20260504014014 61 189 0.0 0.0 0.00 0.00 0.00 90 1021.3
20260504013512 60 189 0.0 0.0 0.00 0.00 0.00 90 1021.5
20260504013009 61 189 0.0 0.0 0.00 0.00 0.00 90 1021.4
20260504012506 61 189 0.0 0.0 0.00 0.00 0.00 90 1021.3
20260504012004 61 189 0.0 0.0 0.00 0.00 0.00 89 1021.5
20260504011500 61 189 0.0 0.0 0.00 0.00 0.00 89 1021.5
20260504010955 61 189 0.0 0.0 0.00 0.00 0.00 89 1021.4
20260504010452 61 190 0.0 0.0 0.00 0.00 0.00 89 1021.5
20260504005948 61 189 0.0 0.0 0.00 0.00 0.00 89 1021.4
20260504005445 61 189 0.0 0.0 0.00 0.00 0.00 89 1021.5
20260504004942 62 189 0.0 0.0 0.00 0.00 0.00 88 1021.4
20260504004440 62 190 0.0 0.0 0.00 0.00 0.00 88 1021.7
20260504003937 61 189 0.0 0.0 0.00 0.00 0.00 88 1021.4
20260504003433 61 169 0.0 0.0 0.00 0.00 0.00 88 1021.5
20260504002930 61 193 0.0 0.0 0.00 0.00 0.00 88 1021.6
20260504002427 61 193 0.0 0.0 0.00 0.00 0.00 88 1021.5
20260504001924 62 194 0.0 0.0 0.00 0.00 0.00 88 1021.5
20260504001422 61 194 0.0 0.0 0.00 0.00 0.00 88 1021.4
20260504000918 61 194 0.0 0.0 0.00 0.00 0.00 88 1021.4
20260504000416 61 197 0.0 0.9 0.00 0.00 0.00 88 1021.4
20260503235912 61 188 0.0 0.9 0.00 0.00 0.00 88 1021.4
20260503235410 61 184 0.0 0.0 0.00 0.00 0.00 88 1021.6
20260503234908 61 182 0.0 0.0 0.00 0.00 0.00 87 1021.5
20260503234405 61 194 0.0 0.0 0.00 0.00 0.00 87 1021.6
20260503233903 61 193 0.0 0.0 0.00 0.00 0.00 87 1021.4
20260503233359 61 191 0.0 0.0 0.00 0.00 0.00 87 1021.5
20260503232855 61 196 0.0 0.0 0.00 0.00 0.00 87 1021.5
20260503232353 61 199 0.0 0.0 0.00 0.00 0.00 87 1021.6
20260503231850 61 179 0.0 0.0 0.00 0.00 0.00 87 1021.5
20260503231347 61 179 0.0 0.0 0.00 0.00 0.00 87 1021.6
20260503230843 60 179 0.0 0.0 0.00 0.00 0.00 86 1021.5
20260503230340 60 179 0.0 0.0 0.00 0.00 0.00 86 1021.5
20260503225838 60 179 0.0 0.0 0.00 0.00 0.00 86 1021.5
20260503225334 60 179 0.0 0.0 0.00 0.00 0.00 85 1021.6
20260503224830 60 179 0.0 0.0 0.00 0.00 0.00 85 1021.4
20260503224327 60 179 0.0 0.0 0.00 0.00 0.00 85 1021.2
20260503223825 60 179 0.0 0.0 0.00 0.00 0.00 84 1021.3
20260503223323 60 179 0.0 0.0 0.00 0.00 0.00 84 1021.3
20260503222818 60 179 0.0 0.0 0.00 0.00 0.00 84 1021.4
20260503222317 60 179 0.0 0.0 0.00 0.00 0.00 84 1021.2
20260503221815 61 179 0.0 0.0 0.00 0.00 0.00 83 1021.1
20260503221313 61 179 0.0 0.0 0.00 0.00 0.00 83 1021.2
20260503220809 61 179 0.0 0.0 0.00 0.00 0.00 83 1021.5
20260503220306 61 179 0.0 0.0 0.00 0.00 0.00 83 1021.2
20260503215802 61 179 0.0 0.0 0.00 0.00 0.00 82 1021.3